Weather History for Greensboro, NC

Change the Weather History Date:

Tuesday, January 7, 2014

  Actual Average Record
Temperature  
Mean Temperature 14 °F 39 °F  
Max Temperature 23 °F 48 °F 71 °F (1982)
Min Temperature 5 °F 29 °F 5 °F (2014)
Degree Days  
Heating Degree Days 51 26  
Month to date heating degree days 243 182  
Since 1 July heating degree days 1613 1596  
Cooling Degree Days 0 0  
Month to date cooling degree days 0 0  
Year to date cooling degree days 0 0  
Moisture  
Dew Point -6 °F    
Average Humidity 44    
Maximum Humidity 60    
Minimum Humidity 27    
Precipitation  
Precipitation 0.00 in 0.10 in 1.40 in (1908)
Month to date precipitation 1.14 0.68  
Year to date precipitation 1.14 0.68  
Snow  
Snow 0.00 in 0.10 in 8.60 in (1988)
Month to date snowfall 0.0 0.6  
Since 1 July snowfall T 1.5  
Snow Depth 0.00 in    
Sea Level Pressure  
Sea Level Pressure 30.40 in    
Wind  
Wind Speed 8 mph (West)    
Max Wind Speed 18 mph    
Max Gust Speed 23 mph    
Visibility 10 miles    
Events      
T = Trace of Precipitation, MM = Missing Value Source: NWS Daily Summary

Daily Weather History Graph

Daily Weather History Graph

Search for Another Location

Airport:

Trip Planner

Search our weather history database for the weather conditions in past years. The results will help you decide how hot, cold, wet, or windy it might be!

Date:

Astronomy

Jan. 07, 2014 Rise Set
Actual Time 7:31 AM EST 5:21 PM EST
Civil Twilight 7:02 AM EST 5:49 PM EST
Nautical Twilight 6:30 AM EST 6:21 PM EST
Astronomical Twilight 5:59 AM EST 6:52 PM EST
Moon 11:32 AM EST (1/7) No Moon Set
Length of Visible Light 10h 46m
Length of Day
9h 50m
Waxing Crescent, 45% of the Moon is Illuminated
Jan 7
Waxing Crescent
Jan 7
First Quarter
Jan 15
Full
Jan 24
Last Quarter
Jan 30
New

Hourly Weather History & Observations

Time (EST) Temp. Windchill Dew Point Humidity Pressure Visibility Wind Dir Wind Speed Gust Speed Precip Events Conditions
12:54 AM 9.0 °F -5.9 °F -9.9 °F 42% 30.23 in 10.0 mi NW 11.5 mph - N/A   Clear
1:54 AM 8.1 °F -9.0 °F -11.0 °F 42% 30.26 in 10.0 mi NW 15.0 mph - N/A   Clear
2:54 AM 7.0 °F -8.3 °F -11.0 °F 44% 30.30 in 10.0 mi NW 11.5 mph 17.3 mph N/A   Clear
3:54 AM 6.1 °F -5.6 °F -9.0 °F 50% 30.32 in 10.0 mi WNW 6.9 mph - N/A   Clear
4:54 AM 6.1 °F -4.3 °F -9.0 °F 50% 30.34 in 10.0 mi NW 5.8 mph - N/A   Clear
5:54 AM 6.1 °F - -8.0 °F 53% 30.37 in 10.0 mi Calm Calm - N/A   Clear
6:54 AM 5.0 °F -5.6 °F -7.1 °F 58% 30.39 in 10.0 mi WNW 5.8 mph - N/A   Clear
7:54 AM 6.1 °F -2.8 °F -8.0 °F 53% 30.38 in 10.0 mi NW 4.6 mph - N/A   Clear
8:54 AM 9.0 °F -6.6 °F -8.0 °F 46% 30.46 in 10.0 mi WNW 12.7 mph - N/A   Partly Cloudy
9:54 AM 12.0 °F -2.7 °F -8.0 °F 41% 30.49 in 10.0 mi WNW 12.7 mph - N/A   Partly Cloudy
10:54 AM 15.1 °F 2.5 °F -7.1 °F 37% 30.48 in 10.0 mi NW 10.4 mph - N/A   Partly Cloudy
11:54 AM 17.1 °F 2.5 °F -9.0 °F 31% 30.43 in 10.0 mi NW 15.0 mph 21.9 mph N/A   Partly Cloudy
12:54 PM 19.0 °F 5.6 °F -8.0 °F 30% 30.38 in 10.0 mi NW 13.8 mph 19.6 mph N/A   Partly Cloudy
1:54 PM 21.0 °F 12.4 °F -8.0 °F 28% 30.38 in 10.0 mi WSW 6.9 mph - N/A   Partly Cloudy
2:54 PM 21.0 °F 16.2 °F -8.0 °F 28% 30.38 in 10.0 mi Variable 3.5 mph - N/A   Partly Cloudy
3:54 PM 23.0 °F 14.7 °F -7.1 °F 27% 30.39 in 10.0 mi WSW 6.9 mph - N/A   Scattered Clouds
4:54 PM 21.9 °F 14.5 °F -7.1 °F 28% 30.42 in 10.0 mi West 5.8 mph - N/A   Mostly Cloudy
5:54 PM 19.9 °F 11.1 °F -4.0 °F 35% 30.44 in 10.0 mi SW 6.9 mph - N/A   Scattered Clouds
6:54 PM 19.0 °F 11.1 °F -2.9 °F 38% 30.45 in 10.0 mi WSW 5.8 mph - N/A   Scattered Clouds
7:54 PM 18.0 °F 9.8 °F -0.0 °F 45% 30.44 in 10.0 mi SSW 5.8 mph - N/A   Partly Cloudy
8:54 PM 18.0 °F 11.1 °F -0.9 °F 44% 30.47 in 10.0 mi SW 4.6 mph - N/A   Partly Cloudy
9:54 PM 18.0 °F 11.1 °F -0.0 °F 45% 30.48 in 10.0 mi SW 4.6 mph - N/A   Clear
10:54 PM 17.1 °F 8.7 °F 1.9 °F 52% 30.47 in 10.0 mi SW 5.8 mph - N/A   Clear
11:54 PM 17.1 °F 11.7 °F 1.9 °F 52% 30.46 in 10.0 mi SW 3.5 mph - N/A   Clear